Location: Habighorst
(52.7089°N, 10.2278°E)
Time: 23:46:59
(UTC+00:00)

Meteor 1-21 - Pass Details

Date: 13 January 2026
Orbit: 845 x 885 km, 81.2° (Epoch: 9 February)

Event Time Altitude Azimuth Distance (km) Brightness Sun altitude
Exits shadow 04:34:04 42° 337° (NNW) 1,211 4.8 -25.0°
Maximum altitude 04:36:04 77° 260° (W) 883 4.0 -24.7°
Drops below altitude 10° 04:41:42 10° 176° (S) 2,492 6.7 -23.8°
Sets 04:44:08 0° 174° (S) 3,430 7.5 -23.4°
